sat.trackr.live / text

‹ back to catalog

STARLINK-37935

NORAD 69562 · 2026-135S

PAYLOAD ACTIVE UNKNOWN

§ Identity

Operator
Country
US
Launch date
2026-06-15
Launch site
AFWTR
Launch vehicle
Mass (kg)
RCS (m²)

Purposes: comms

External: N2YO · Heavens-Above · Gunter

§ Orbital elements

Epoch: 2026-09-18T21:02:51.980928Z

Period
93.91 min
Inclination
97.2862°
Eccentricity
0.0000419
Mean motion
15.33451465 rev/d
Perigee alt
465.2 km
Apogee alt
465.8 km
Semi-major
6,843.7 km
B*
5.0323e-4
RAAN
289.6203°
Arg perigee
144.3376°
Mean anomaly
215.7895°
Rev number
1,475

§ Raw data

STARLINK-379351 69562U 26135S   26261.87699052  .00016209  00000+0  50323-3 0  99912 69562  97.2862 289.6203 0000419 144.3376 215.7895 15.33451465 14757

JSON: /api/v1/satellites/69562 · /tle

For live sub-satellite position, see the globe view (requires WebGL).

§ Visibility from observer

Set your observer location to see the next 7 days of passes ≥ 10°. The values pass through the URL so the page stays shareable.

No JS? Fill the form by hand. The geolocation button needs JavaScript.